Meath Environmental Platform

Observations for Trim Market St

Time AQI Temp °C Hum % Pres Pa CO μg/m³ H₂S μg/m³ NO μg/m³ NO₂ μg/m³ O₃ μg/m³ SO₂ μg/m³ PM1 μg/m³ PM2.5 μg/m³ PM10 μg/m³
Wednesday 26 August 2026
20:32 3 20.6 66 56,430 0 0 2.45 16.16 75.16 0 8.55 11.62 16.66
20:31 3 20.6 66 56,489 0.13 0 2.37 20.86 74.03 0 7.84 9.17 13.41
20:30 3 20.6 65 56,548 0 0 2.12 31.6 64.07 0 7.13 9.67 14.72
20:29 3 20.7 65 56,603 0 0 1.58 31.71 63.45 0 6.41 8.2 11.46
20:28 3 20.7 65 56,658 0 0 1.46 18.04 76.08 0 8.55 11.66 18.67
20:27 3 20.8 65 56,713 0 0 1.33 19.8 75 0 7.13 9.7 13.44
20:26 3 20.8 65 56,782 0 0 1.28 17.7 77.51 0 7.13 9.71 14.76
20:25 3 20.8 65 56,847 0 0 1.52 17.48 77.26 0 6.41 8.24 12.14
20:24 3 20.9 65 56,913 0 0 1.41 18.92 76.68 0 6.41 9.73 14.78
20:23 3 20.9 64 56,987 0 0 1.43 22.97 71.91 0 7.84 10.73 16.77
20:22 3 20.9 64 57,053 0 0 1.65 23.01 72.54 0 8.55 11.23 16.12
20:21 3 21 64 57,110 0 0 2.04 20.18 75.2 0 7.84 9.27 14.15
20:19 3 21 64 57,164 0.07 0 2.1 16.62 78.01 0 6.41 8.8 12.18
20:18 3 21.1 64 57,196 0 0 2.07 20.21 73.85 0 7.13 9.79 13.51
20:17 3 21.1 64 57,224 0 0 1.8 14.45 79.69 0 4.99 8.31 11.52
20:16 3 21.2 63 57,248 0 0 1.6 13.56 83.97 0 6.41 9.32 15.53
20:15 3 21.2 63 57,275 0 0 1.44 14.49 82.41 0 5.7 10.31 15.54
20:13 3 21.3 63 57,333 0 0 1.35 18.99 76.73 0 7.13 9.34 13.55
20:12 3 21.3 63 57,362 0 0 1.42 20.91 73.39 0 6.41 9.35 13.56
20:11 3 21.3 63 57,386 0 0 1.24 14.39 83.18 0 6.41 9.36 13.56